Fort Worth, TX

2:39 PM CST on November 22, 2017 (GMT -0600)
Fort Worth Meacham International

Weather History for KFTW - January, 2011

Change the Weather History Date:

Saturday, January 1, 2011

  Actual Average Record
Temperature  
Mean Temperature 35 °F -  
Max Temperature 42 °F 55 °F 82 °F (2006)
Min Temperature 28 °F 35 °F 24 °F (2001)
Degree Days  
Heating Degree Days 30    
Moisture  
Dew Point 14 °F    
Average Humidity 45    
Maximum Humidity 72    
Minimum Humidity 27    
Precipitation  
Precipitation 0.00 in - - ()
Sea Level Pressure  
Sea Level Pressure 30.23 in    
Wind  
Wind Speed 8 mph (North)    
Max Wind Speed 17 mph    
Max Gust Speed 21 mph    
Visibility 10 miles    
Events      
Averages and records for this station are not official NWS values.
T = Trace of Precipitation, MM = Missing Value Source: NWS Daily Summary

Daily Weather History Graph

Daily Weather History Graph

Search for Another Location

Airport or City:

Trip Planner

Search our weather history database for the weather conditions in past years. The results will help you decide how hot, cold, wet, or windy it might be!

Date:

Astronomy

Jan. 01, 2011 Rise Set
Actual Time 7:31 AM CST 5:34 PM CST
Civil Twilight 7:04 AM CST 6:01 PM CST
Nautical Twilight 6:34 AM CST 6:32 PM CST
Astronomical Twilight 6:04 AM CST 7:02 PM CST
Moon 5:04 AM CST (1/1) 3:14 PM CST (1/1)
Length of Visible Light 10h 56m
Length of Day
10h 02m
Waning Crescent, 7% of the Moon is Illuminated
Jan 1
Waning Crescent
Jan 4
New
Jan 12
First Quarter
Jan 19
Full
Jan 26
Last Quarter

Hourly Weather History & Observations

Time (CST) Temp. Windchill Dew Point Humidity Pressure Visibility Wind Dir Wind Speed Gust Speed Precip Events Conditions
12:53 AM 39.9 °F - 21.0 °F 47% 29.99 in 10.0 mi Calm Calm - N/A   Clear
1:53 AM 42.1 °F 36.6 °F 19.0 °F 40% 30.02 in 10.0 mi NNW 9.2 mph - N/A   Mostly Cloudy
2:53 AM 37.0 °F 27.4 °F 26.1 °F 65% 30.06 in 10.0 mi North 17.3 mph - N/A   Partly Cloudy
3:53 AM 36.0 °F 28.0 °F 25.0 °F 64% 30.08 in 10.0 mi North 11.5 mph - N/A   Mostly Cloudy
4:53 AM 33.1 °F 26.1 °F 21.9 °F 64% 30.11 in 10.0 mi North 8.1 mph - N/A   Clear
5:53 AM 30.9 °F 22.2 °F 21.0 °F 67% 30.13 in 10.0 mi North 10.4 mph - N/A   Clear
6:53 AM 28.9 °F 19.8 °F 21.0 °F 72% 30.18 in 10.0 mi North 10.4 mph - N/A   Scattered Clouds
7:53 AM 28.0 °F 18.1 °F 15.1 °F 58% 30.22 in 10.0 mi North 11.5 mph - N/A   Scattered Clouds
8:53 AM 28.9 °F 17.7 °F 12.0 °F 49% 30.26 in 10.0 mi North 15.0 mph - N/A   Clear
9:53 AM 32.0 °F 22.1 °F 12.0 °F 44% 30.28 in 10.0 mi North 13.8 mph - N/A   Partly Cloudy
10:53 AM 33.1 °F 24.4 °F 10.0 °F 38% 30.30 in 10.0 mi North 11.5 mph - N/A   Clear
11:53 AM 36.0 °F 28.5 °F 9.0 °F 33% 30.30 in 10.0 mi North 10.4 mph - N/A   Clear
12:53 PM 39.9 °F 33.4 °F 10.0 °F 29% 30.27 in 10.0 mi North 10.4 mph - N/A   Clear
1:53 PM 39.9 °F 36.7 °F 10.0 °F 29% 30.25 in 10.0 mi NNW 4.6 mph 20.7 mph N/A   Clear
2:53 PM 42.1 °F 35.7 °F 10.0 °F 27% 30.24 in 10.0 mi North 11.5 mph - N/A   Clear
3:53 PM 42.1 °F 37.1 °F 10.0 °F 27% 30.25 in 10.0 mi North 8.1 mph 17.3 mph N/A   Clear
4:53 PM 39.9 °F 34.5 °F 10.0 °F 29% 30.25 in 10.0 mi NNE 8.1 mph - N/A   Clear
5:53 PM 36.0 °F 31.1 °F 10.9 °F 36% 30.27 in 10.0 mi NNE 5.8 mph - N/A   Clear
6:53 PM 35.1 °F - 12.9 °F 40% 30.29 in 10.0 mi Calm Calm - N/A   Clear
7:53 PM 32.0 °F 26.4 °F 12.9 °F 45% 30.30 in 10.0 mi North 5.8 mph - N/A   Clear
8:53 PM 30.9 °F 25.2 °F 12.0 °F 46% 30.31 in 10.0 mi North 5.8 mph - N/A   Clear
9:53 PM 30.9 °F - 10.9 °F 43% 30.34 in 10.0 mi Calm Calm - N/A   Clear
10:53 PM 28.0 °F 22.8 °F 10.9 °F 49% 30.36 in 10.0 mi North 4.6 mph - N/A   Clear
11:53 PM 28.9 °F 22.8 °F 12.0 °F 49% 30.35 in 10.0 mi NNE 5.8 mph - N/A   Clear